Orbital Elements at Epoch 2459200.5 (2020-Dec-17.0) TDB
Reference: JPL 23 (heliocentric ecliptic J2000)
Element | Value | Uncertainty (1-sigma) | Units |
e | .2928922443606941 | 6.6004e-08 | |
a | 2.573016660359873 | 1.7084e-08 | au |
q | 1.819400035929612 | 1.7973e-07 | au |
i | 4.203357098229169 | 4.3313e-06 | deg |
node | 183.8352668854428 | 4.8415e-05 | deg |
peri | 232.143862223752 | 4.969e-05 | deg |
M | 329.4581011195249 | 1.7321e-05 | deg |
tp | 2459328.395675035101 (2021-Apr-23.89567504) | 7.3652e-05 | TDB |
period | 1507.517367954828 4.13 | 1.5014e-05 4.111e-08 | d yr |
n | .2388032188898716 | 2.3783e-09 | deg/d |
Q | 3.326633284790133 | 2.2087e-08 | au |
|
| | Orbit Determination Parameters
Additional Information
|